Location: Buena Vista Beach
(41.8098°N, 81.1279°W)
Time: 17:38:33
(UTC+00:00)

CZ-2D R/B - Pass Details

Date: 29 October 2020
Orbit: 522 x 537 km, 97.4° (Epoch: 28 November)

Event Time Altitude Azimuth Distance (km) Brightness Sun altitude
Rises 23:40:21 0° 163° (SSE) 2,648 6.7 -15.1°
Reaches altitude 10° 23:42:26 10° 162° (SSE) 1,761 5.8 -15.5°
Maximum altitude 23:46:14 78° 78° (ENE) 541 3.1 -16.2°
Drops below altitude 10° 23:50:03 10° 351° (N) 1,769 6.0 -16.9°
Sets 23:52:09 0° 350° (N) 2,661 6.9 -17.3°
